[[{"header":{"parameterUnit":"m.s-1","parameterCategory":1,"la1":30.2991,"la2":30.254,"lo1":-89.0895,"lo2":-89.0444,"dy":0.0017,"dx":0.0017,"nx":28,"ny":28,"refTime":"2024-03-27T21:00:00:Z","depth":0,"parameterNumber":2,"parameterNumberName":"U-component_of_WINDS"},"data":[0,0,0,0,0,0,0,0,0,0,0,0,0,0,0,0,0,0,0,0,0,0,0,0,0,0,0,0,0,0,0,0,0,0,0,0,0,0,0,0,0,0,0,0,0,0,0,0,0,0,0,0,0,0,0,0,0,0,0.3331,0.3331,0,0.3378,0.3379,0.338,0.3365,0.3364,0.3363,0.3362,0.3413,0.3415,0.3418,0,0,0,0,0,0,0,0,0,0,0,0,0,0.323,0.3232,0.3331,0.3331,0.3332,0.3378,0.3379,0.338,0.3365,0.3364,0.3363,0.3362,0.3412,0.3415,0.3418,0,0,0,0,0,0,0,0,0,0,0,0,0,0.3276,0.3233,0.333,0.333,0.3331,0.3378,0.3379,0.338,0.3366,0.3364,0.3362,0.3361,0.3411,0.3415,0.3418,0.347,0,0,0.3429,0.343,0,0,0,0,0,0,0,0,0.3273,0.3279,0.333,0.333,0.3331,0.3364,0.3362,0.341,0.3366,0.3352,0.3362,0.336,0.3398,0.3403,0.3415,0.3472,0.3474,0.3429,0.3431,0.3433,0.3434,0,0,0,0,0,0,0,0.327,0.3277,0.335,0.333,0.3331,0.3329,0.3334,0.3371,0.3383,0.3353,0.3352,0.3358,0.3398,0.3412,0.3416,0.3475,0.3429,0.3432,0.3434,0.3435,0.358,0.3581,0,0,0,0,0,0,0.3266,0.3275,0.3348,0.3351,0.3298,0.3332,0.3337,0.3355,0.3383,0.3385,0.3359,0.3357,0.3407,0.3412,0.3418,0.3482,0.3433,0.3436,0.3438,0.3578,0.358,0.3582,0,0,0,0,0,0,0.3264,0.3273,0.3346,0.3313,0.3322,0.3335,0.3355,0.3357,0.337,0.3387,0.339,0.3371,0.3406,0.3413,0.3457,0.3484,0.3437,0.344,0.3576,0.3579,0.3581,0.361,0,0,0,0,0,0,0.3261,0.3272,0.3291,0.3313,0.3324,0.3384,0.3357,0.3359,0.3376,0.3374,0.3399,0.3401,0.3405,0.3452,0.3461,0.3487,0.3443,0.3574,0.3577,0.358,0.3606,0.3613,0.3618,0,0,0,0,0,0.3257,0.3297,0.3292,0.3301,0.3347,0.3385,0.3392,0.3394,0.3378,0.3398,0.3409,0.34,0.3479,0.3457,0.3466,0.3494,0.3572,0.3576,0.358,0.3604,0.3612,0.3618,0,0,0,0,0,0,0.3277,0.3299,0.3294,0.3342,0.3362,0.3383,0.3408,0.3402,0.3428,0.3425,0.3428,0.3434,0.348,0.3491,0.3466,0.3547,0.3523,0.3529,0.3538,0.3546,0.3552,0.3549,0.3446,0,0,0,0,0,0.3287,0.3315,0.3333,0.3374,0.3384,0.3394,0.3411,0.3412,0.3433,0.3441,0.3456,0.3478,0.3507,0.3527,0.3555,0.3608,0.3614,0.3632,0.3638,0.3643,0.3648,0.368,0.3689,0.3595,0.3595,0.3595,0,0,0.3308,0.3323,0.3341,0.3378,0.3394,0.3425,0.3401,0.3434,0.3458,0.3447,0.349,0.3501,0.3526,0.3575,0.3598,0.3587,0.3676,0.3648,0.3651,0.3655,0.3685,0.3694,0.3702,0.3598,0.3597,0.3597,0,0,0.3361,0.3375,0.3411,0.3428,0.3452,0.3459,0.3467,0.349,0.3497,0.354,0.3533,0.3562,0.3612,0.3631,0.3647,0.371,0.3704,0.3719,0.3751,0.3782,0.3789,0.3796,0.382,0.3829,0.3724,0.3724,0.3724,0,0.3384,0.3429,0.3431,0.3465,0.3482,0.3473,0.3511,0.3527,0.356,0.3573,0.3559,0.3624,0.364,0.3695,0.371,0.3723,0.3735,0.3717,0.3787,0.3794,0.38,0.3824,0.3833,0.3726,0.3726,0.3726,0.3726,0,0.3458,0.3489,0.3515,0.3547,0.3567,0.3603,0.3612,0.3632,0.3631,0.364,0.3686,0.3705,0.3738,0.375,0.375,0.3806,0.3799,0.3786,0.3763,0.3811,0.3834,0.3843,0.3729,0.3728,0.3728,0.3727,0,0,0.3525,0.3558,0.3568,0.3583,0.361,0.3635,0.3671,0.3703,0.3722,0.3745,0.3777,0.3821,0.381,0.3828,0.383,0.3856,0.3908,0.3841,0.3842,0.3855,0.3975,0.3985,0.3996,0.3904,0.3905,0.3907,0.3974,0,0.3583,0.3646,0.3649,0.3707,0.3738,0.373,0.3762,0.3783,0.3793,0.3821,0.3832,0.3864,0.3846,0.3858,0.3883,0.3896,0.3933,0.3891,0.3936,0.3937,0.3932,0.4007,0.4018,0.408,0.3982,0.3983,0.3985,0,0.3658,0.3684,0.3745,0.377,0.3783,0.3811,0.3842,0.3868,0.3893,0.3898,0.3919,0.3918,0.3957,0.3931,0.3986,0.3958,0.3976,0.3986,0.3988,0.3994,0.3965,0.4017,0.4099,0.411,0.3998,0.3997,0.3996,0,0.3704,0.3754,0.3798,0.3811,0.384,0.386,0.3874,0.3896,0.3916,0.3943,0.3957,0.3988,0.4006,0.4031,0.4039,0.4019,0.4095,0.4069,0.4102,0.4102,0.412,0.4119,0.4209,0.4128,0.4128,0.4128,0.4128,0,0.377,0.3808,0.3819,0.3846,0.389,0.3894,0.3937,0.3949,0.3969,0.4,0.3995,0.4024,0.4032,0.4063,0.4069,0.4115,0.4123,0.413,0.4131,0.4131,0.4131,0.4145,0.4142,0.413,0.413,0.4129,0.4129,0,0.3829,0.3838,0.3885,0.3909,0.3916,0.3947,0.3968,0.3995,0.4004,0.4043,0.4053,0.4068,0.4104,0.4114,0.4157,0.4162,0.4217,0.4214,0.4209,0.421,0.4244,0.4241,0.4347,0.4362,0.427,0.4271,0.4271,0,0.3871,0.39,0.3928,0.3948,0.3962,0.3994,0.4014,0.4019,0.4041,0.4072,0.4096,0.4132,0.4161,0.422,0.4236,0.427,0.4268,0.4303,0.4273,0.4274,0.4272,0.4271,0.4275,0.4309,0.431,0.4311,0.4312,0,0.3945,0.3949,0.3978,0.401,0.4034,0.4059,0.4083,0.41,0.4109,0.4134,0.4172,0.4194,0.4239,0.4276,0.431,0.4325,0.4322,0.4321,0.4331,0.4332,0.4329,0.4334,0.4227,0.4319,0.4318,0.4317,0.4317,0.4317,0.3999,0.4026,0.405,0.4083,0.4102,0.4125,0.4152,0.4165,0.4196,0.4233,0.4234,0.4276,0.4301,0.4347,0.4365,0.4398,0.4388,0.4402,0.4406,0.441,0.4414,0.4322,0.4404,0.4404,0.4404,0.4403,0.4403,0,0.4076,0.4091,0.4121,0.4156,0.4183,0.4175,0.4202,0.4226,0.4262,0.4285,0.4314,0.4359,0.4395,0.4413,0.445,0.4473,0.4472,0.4483,0.4482,0.4486,0.4419,0.4408,0.4483,0.4483,0.4483,0.4483,0.4483,0.4483,0.4119,0.4165,0.4171,0.4227,0.4242,0.4282,0.4298,0.4321,0.434,0.4389,0.4419,0.4431,0.4454,0.4492,0.4525,0.453,0.4545,0.4557,0.4561,0.4498,0.449,0.4483,0.4472,0.4559,0.4559,0.4625,0.4626,0.4626]},{"header":{"parameterUnit":"m.s-1","parameterCategory":1,"la1":30.2991,"la2":30.254,"lo1":-89.0895,"lo2":-89.0444,"dy":0.0017,"dx":0.0017,"nx":28,"ny":28,"refTime":"2024-03-27T21:00:00:Z","depth":0,"parameterNumber":3,"parameterNumberName":"V-component_of_WINDS"},"data":[0,0,0,0,0,0,0,0,0,0,0,0,0,0,0,0,0,0,0,0,0,0,0,0,0,0,0,0,0,0,0,0,0,0,0,0,0,0,0,0,0,0,0,0,0,0,0,0,0,0,0,0,0,0,0,0,0,0,-5.3688,-5.3688,0,-5.3768,-5.3769,-5.377,-5.3774,-5.3773,-5.3772,-5.3772,-5.3849,-5.3851,-5.3854,0,0,0,0,0,0,0,0,0,0,0,0,0,-5.3533,-5.3536,-5.3687,-5.3688,-5.3689,-5.3768,-5.3769,-5.377,-5.3774,-5.3773,-5.3772,-5.3771,-5.3848,-5.3851,-5.3855,0,0,0,0,0,0,0,0,0,0,0,0,0,-5.3605,-5.3537,-5.3687,-5.3701,-5.3703,-5.3768,-5.3769,-5.3771,-5.3775,-5.3773,-5.3772,-5.3771,-5.3846,-5.3851,-5.3855,-5.391,0,0,-5.3868,-5.387,0,0,0,0,0,0,0,0,-5.3601,-5.3611,-5.3698,-5.37,-5.3703,-5.376,-5.3743,-5.3817,-5.3775,-5.3747,-5.3772,-5.377,-5.382,-5.3826,-5.3844,-5.3913,-5.3917,-5.3869,-5.3871,-5.3873,-5.3874,0,0,0,0,0,0,0,-5.3596,-5.3608,-5.3719,-5.3699,-5.3702,-5.3702,-5.3711,-5.3757,-5.379,-5.375,-5.375,-5.376,-5.3821,-5.384,-5.3846,-5.3918,-5.3869,-5.3872,-5.3875,-5.3877,-5.4038,-5.404,0,0,0,0,0,0,-5.3589,-5.3603,-5.3717,-5.3722,-5.3648,-5.3706,-5.3716,-5.3743,-5.379,-5.3796,-5.3761,-5.376,-5.3833,-5.3841,-5.3849,-5.3918,-5.3873,-5.3877,-5.388,-5.4037,-5.4039,-5.4041,0,0,0,0,0,0,-5.3586,-5.3599,-5.3713,-5.3663,-5.3677,-5.371,-5.374,-5.3745,-5.3765,-5.3799,-5.3804,-5.3775,-5.3833,-5.3843,-5.3896,-5.3921,-5.3879,-5.3883,-5.4035,-5.4037,-5.404,-5.4056,0,0,0,0,0,0,-5.3581,-5.3598,-5.362,-5.3663,-5.368,-5.376,-5.3742,-5.3748,-5.3773,-5.3772,-5.3813,-5.3818,-5.3832,-5.3889,-5.39,-5.3926,-5.3887,-5.4033,-5.4036,-5.4039,-5.4053,-5.4058,-5.4063,0,0,0,0,0,-5.3576,-5.3619,-5.3621,-5.3634,-5.3708,-5.3761,-5.3771,-5.3787,-5.3775,-5.3797,-5.3819,-5.3817,-5.3916,-5.3894,-5.3907,-5.3934,-5.4031,-5.4035,-5.4039,-5.4051,-5.4057,-5.4063,0,0,0,0,0,0,-5.3574,-5.3625,-5.3627,-5.3686,-5.372,-5.3762,-5.379,-5.3793,-5.383,-5.3827,-5.3845,-5.3854,-5.3907,-5.3926,-5.39,-5.3991,-5.3972,-5.3978,-5.3977,-5.3984,-5.3988,-5.3983,-5.389,0,0,0,0,0,-5.3582,-5.3622,-5.3663,-5.3711,-5.3728,-5.3756,-5.378,-5.379,-5.3825,-5.3838,-5.3864,-5.3897,-5.3936,-5.396,-5.3998,-5.4056,-5.4065,-5.4081,-5.4086,-5.409,-5.4095,-5.413,-5.4138,-5.4053,-5.4053,-5.4053,0,0,-5.3595,-5.3628,-5.3652,-5.3712,-5.3739,-5.378,-5.3768,-5.3811,-5.3841,-5.3844,-5.3897,-5.3917,-5.3955,-5.4011,-5.4037,-5.4029,-5.4121,-5.4095,-5.4098,-5.4101,-5.4134,-5.4142,-5.415,-5.4056,-5.4055,-5.4055,0,0,-5.3642,-5.367,-5.3715,-5.3744,-5.3786,-5.3805,-5.3816,-5.3859,-5.3873,-5.3927,-5.3931,-5.3967,-5.4032,-5.406,-5.4082,-5.4143,-5.4143,-5.4155,-5.4181,-5.4214,-5.4221,-5.4227,-5.425,-5.4258,-5.416,-5.416,-5.416,0,-5.3653,-5.3717,-5.3737,-5.3781,-5.3808,-5.3816,-5.3861,-5.3887,-5.3938,-5.3956,-5.3946,-5.4032,-5.4057,-5.4121,-5.4137,-5.4154,-5.4167,-5.415,-5.4218,-5.4225,-5.4231,-5.4253,-5.4262,-5.4161,-5.4161,-5.4161,-5.4161,0,-5.373,-5.3774,-5.3804,-5.3858,-5.3888,-5.3932,-5.3958,-5.3986,-5.3994,-5.4014,-5.407,-5.4101,-5.4146,-5.4162,-5.4169,-5.4228,-5.4222,-5.4215,-5.4196,-5.424,-5.4261,-5.427,-5.4163,-5.4162,-5.4162,-5.4162,0,0,-5.3776,-5.3843,-5.3854,-5.3879,-5.3929,-5.3962,-5.4007,-5.4054,-5.4079,-5.4114,-5.4153,-5.421,-5.4206,-5.4231,-5.4241,-5.4271,-5.432,-5.4261,-5.4262,-5.4272,-5.4389,-5.4395,-5.4404,-5.432,-5.4322,-5.4323,-5.4386,0,-5.3829,-5.3912,-5.3933,-5.4003,-5.4045,-5.4055,-5.4094,-5.4128,-5.4149,-5.4186,-5.4208,-5.4249,-5.4239,-5.4255,-5.4284,-5.4308,-5.4344,-5.4303,-5.4356,-5.4358,-5.4348,-5.4415,-5.4421,-5.4479,-5.4395,-5.4396,-5.4397,0,-5.3902,-5.3944,-5.4019,-5.4066,-5.4085,-5.412,-5.4166,-5.4202,-5.4241,-5.4254,-5.4285,-5.4293,-5.4341,-5.432,-5.4385,-5.4358,-5.4381,-5.4396,-5.4398,-5.4404,-5.4381,-5.4424,-5.4497,-5.4506,-5.441,-5.4409,-5.4408,0,-5.393,-5.4005,-5.4061,-5.4082,-5.4137,-5.4163,-5.4187,-5.4225,-5.4253,-5.4292,-5.4311,-5.4354,-5.4378,-5.4412,-5.4432,-5.4414,-5.4497,-5.4477,-5.4509,-5.4508,-5.4526,-5.4524,-5.4605,-5.4539,-5.4539,-5.4538,-5.4538,0,-5.3988,-5.4034,-5.4075,-5.4109,-5.4162,-5.4185,-5.4236,-5.4259,-5.4294,-5.4333,-5.4342,-5.4378,-5.4402,-5.4441,-5.4457,-5.451,-5.452,-5.4532,-5.4536,-5.4532,-5.4531,-5.4548,-5.4545,-5.4541,-5.454,-5.454,-5.4539,0,-5.4029,-5.4057,-5.4119,-5.4168,-5.4182,-5.4219,-5.426,-5.4294,-5.4315,-5.4365,-5.4377,-5.4411,-5.4458,-5.4482,-5.4539,-5.455,-5.461,-5.4611,-5.4598,-5.46,-5.4631,-5.4628,-5.4725,-5.474,-5.4663,-5.4664,-5.4665,0,-5.4064,-5.4101,-5.4155,-5.4183,-5.4209,-5.4253,-5.4283,-5.4308,-5.4338,-5.4387,-5.4415,-5.4463,-5.4503,-5.4578,-5.4606,-5.4651,-5.4653,-5.4685,-5.466,-5.4656,-5.4656,-5.4654,-5.4659,-5.4689,-5.469,-5.469,-5.4691,0,-5.4125,-5.4138,-5.4182,-5.4232,-5.4268,-5.4307,-5.4346,-5.4368,-5.4398,-5.4432,-5.4482,-5.4513,-5.4574,-5.4622,-5.467,-5.4693,-5.4697,-5.4699,-5.4709,-5.4705,-5.4697,-5.4704,-5.4611,-5.4696,-5.4695,-5.4695,-5.4695,-5.4695,-5.4165,-5.4199,-5.4244,-5.4293,-5.4326,-5.4362,-5.4398,-5.4426,-5.4468,-5.4522,-5.4533,-5.4586,-5.4627,-5.4691,-5.4717,-5.4758,-5.4751,-5.4765,-5.4769,-5.4772,-5.4775,-5.469,-5.4766,-5.4766,-5.4766,-5.4766,-5.4766,0,-5.4227,-5.4258,-5.4303,-5.4359,-5.4398,-5.4401,-5.4445,-5.4477,-5.4525,-5.4563,-5.4604,-5.4662,-5.4709,-5.4743,-5.4791,-5.4818,-5.4822,-5.483,-5.4829,-5.4834,-5.4777,-5.4765,-5.4827,-5.4827,-5.4827,-5.4827,-5.4827,-5.4827,-5.4264,-5.4324,-5.4343,-5.4418,-5.4448,-5.4502,-5.4528,-5.4562,-5.4593,-5.4659,-5.47,-5.4722,-5.4759,-5.4811,-5.4855,-5.4863,-5.4881,-5.489,-5.4899,-5.4844,-5.4838,-5.4832,-5.482,-5.4893,-5.4893,-5.4953,-5.4953,-5.4954]}]]